Regional Weather Roundup
Issued by NWS

Current Version | Previous Version | Text Only | Print | Product List | Glossary On
Versions: 1 2 3 4 5 6 7 8 9 10 11 12 13 14 15 16 17 18 19 20 21 22 23 24 25 26 27
000
ASUS45 KTFX 040610
RWRMT
MONTANA REGIONAL WEATHER ROUNDUP
NATIONAL WEATHER SERVICE GREAT FALLS MT
1200 AM MDT WED MAY 04 2016

NOTE: "FAIR" INDICATES FEW OR NO CLOUDS BELOW 12000 FEET WITH NO
SIGNIFICANT WEATHER AND/OR OBSTRUCTIONS TO VISIBILITY.

MTZ001>007-043-040700-
WEST OF THE DIVIDE

CITY           SKY/WX    TMP DP  RH WIND       PRES   REMARKS
KALISPELL      CLEAR     50  45  83 N3        29.99R
MISSOULA       CLEAR     54  38  54 N6        30.02R
BUTTE          CLEAR     54  28  36 CALM      30.14S
MULLAN PASS    CLEAR     53  31  42 NW6       30.14S
$$

MTZ008-052>055-040700-
SOUTHWEST MONTANA

CITY           SKY/WX    TMP DP  RH WIND       PRES   REMARKS
BOZEMAN        CLEAR     49  35  58 E5        30.12R
DILLON         CLEAR     54  27  35 NW3       30.14R
ENNIS          CLEAR     52  25  35 S9G16     30.22R
$$

MTZ009-010-012-014-046-048-049-054-040700-
EAST SLOPES AND CENTRAL MONTANA

CITY           SKY/WX    TMP DP  RH WIND       PRES   REMARKS
CUT BANK       CLEAR     52  34  50 S5        30.03R
GREAT FALLS    CLEAR     58  39  49 S6        30.02S
MALMSTROM AFB  CLEAR     55  42  62 SE12      30.01F
HELENA         CLEAR     55  34  45 N3        30.05S
$$

MTZ011-013-016-021-045-047-050-051-040700-
NORTH CENTRAL MONTANA

CITY           SKY/WX    TMP DP  RH WIND       PRES   REMARKS
HAVRE          CLEAR     57  42  57 VRB3      29.99S
LEWISTOWN      CLEAR     54  39  57 E8        30.08F
N BAR RANCH      N/A     48  37  66 NW8       30.15S
$$

MTZ017>020-022>027-061-062-040700-
NORTHEAST MONTANA

CITY           SKY/WX    TMP DP  RH WIND       PRES   REMARKS
GLASGOW        CLEAR     58  38  47 SE7       30.03S
JORDAN           N/A     51  43  74 CALM      30.05F
SIDNEY         PTCLDY    52  39  62 CALM      30.06S
WOLF POINT     CLEAR     50  42  74 W3        30.04S
$$

MTZ028>42-056>058-040700-
SOUTHCENTRAL AND SOUTHEAST MONTANA

CITY           SKY/WX    TMP DP  RH WIND       PRES   REMARKS
BAKER          CLEAR     49  38  65 SE6       30.11R
BILLINGS       CLEAR     63  37  38 SE7       30.09S
LIVINGSTON     CLEAR     45  34  65 S3        30.11S
MILES CITY     CLEAR     59  41  51 SE9       30.07S
$$

REGIONAL REPORTS...DAKOTAS

CITY           SKY/WX    TMP DP  RH WIND       PRES   REMARKS
WILLISTON      CLEAR     47  40  76 CALM      30.06R
MINOT          CLEAR     52  28  39 SE5       30.06S
DICKINSON      CLEAR     47  36  65 S6        30.07S
BEACH            N/A     46  37  71 S3        30.12S
CROSBY           N/A     48  37  66 SW8       30.07S
TIOGA            N/A     45  37  76 SW5       30.12S
WATFORD CITY     N/A     48  39  71 CALM      30.07S
BISMARCK       CLEAR     46  32  58 E3        30.08R
GRAND FORKS    CLEAR     38  30  73 NW9       30.02R WCI  31
FARGO          CLEAR     50  29  44 N13       29.99R
BUFFALO SD       N/A     55  38  52 W5        30.06R
RAPID CITY     CLEAR     50  38  63 NW8       30.11S
$$

REGIONAL REPORTS...WYOMING/IDAHO/WASHINGTON

CITY           SKY/WX    TMP DP  RH WIND       PRES   REMARKS
GILLETTE       CLEAR     44  39  82 S5        30.16F
SHERIDAN       CLEAR     46  38  73 S3        30.13S
BUFFALO WY     CLEAR     54  35  48 W6        30.19F
CODY           CLEAR     54  34  47 SW7       30.17S
YELLOWSTONE LA   N/A     31  25  78 CALM      30.34S
IDAHO FALLS    CLEAR     48  37  65 SE3       30.18S
SALMON         CLEAR     54  30  40 CALM      30.08R
BOISE          PTCLDY    66  33  29 SE9       29.99F
SPOKANE        PTCLDY    61  40  45 CALM      29.95F
$$

REGIONAL REPORTS...ALBERTA

CITY           SKY/WX    TMP DP  RH WIND       PRES   REMARKS
EDMONTON       PTCLDY    57  34  41 S3        29.80F
CALGARY        CLEAR     64  25  22 VRB2      29.93
LETHBRIDGE     CLEAR     48  36  61 SW17      29.96S
MEDICINE HAT   CLEAR     68  37  32 S10G18    29.93R
WATERTON GATE    N/A     50  34  53 S6          N/A
MILK RIVER       N/A     50  39  66 SW1         N/A
ONEFOUR          N/A     52  43  71 E7          N/A
$$

REGIONAL REPORTS...SASKATCHEWAN

CITY           SKY/WX    TMP DP  RH WIND       PRES   REMARKS
SWIFT CURRENT  CLEAR     57  41  54 SW13      29.99S
REGINA         CLEAR     52  36  54 SE8       30.01F
SASKATOON      CLEAR     55  43  62 S10       29.93S
CYPRESS HILLS    N/A     55  37  50 S7          N/A
VAL MARIE        N/A     46  37  71 NE1         N/A
ROCKGLEN         N/A     54  37  54 SW8         N/A
$$




USA.gov is the U.S. government's official web portal to all federal, state and local government web resources and services.